TimeCDT,TemperatureF,Dew PointF,Humidity,Sea Level PressureIn,VisibilityMPH,Wind Direction,Wind SpeedMPH,Gust SpeedMPH,PrecipitationIn,Events,Conditions,WindDirDegrees,DateUTC
12:15 AM,44.6,41.0,87,29.98,10.0,NW,13.8,19.6,N/A,,Overcast,310,2013-11-02 05:15:00
12:35 AM,44.6,41.0,87,29.98,10.0,NW,18.4,-,N/A,,Overcast,320,2013-11-02 05:35:00
12:55 AM,44.6,41.0,87,29.99,10.0,NW,15.0,21.9,N/A,,Overcast,320,2013-11-02 05:55:00
1:15 AM,44.6,39.2,81,29.99,10.0,NW,15.0,23.0,N/A,,Overcast,320,2013-11-02 06:15:00
1:35 AM,44.6,39.2,81,30.00,10.0,NW,15.0,-,N/A,,Overcast,320,2013-11-02 06:35:00
1:55 AM,44.6,39.2,81,30.01,10.0,NW,15.0,-,N/A,,Overcast,320,2013-11-02 06:55:00
2:15 AM,44.6,39.2,81,30.02,10.0,NW,13.8,-,N/A,,Overcast,320,2013-11-02 07:15:00
2:35 AM,44.6,39.2,81,30.02,10.0,NW,13.8,-,N/A,,Overcast,320,2013-11-02 07:35:00
2:55 AM,42.8,39.2,87,30.03,10.0,NW,12.7,-,N/A,,Overcast,320,2013-11-02 07:55:00
3:15 AM,42.8,39.2,87,30.03,10.0,NW,10.4,-,N/A,,Overcast,310,2013-11-02 08:15:00
3:35 AM,42.8,39.2,87,30.04,10.0,NW,13.8,19.6,N/A,,Overcast,320,2013-11-02 08:35:00
3:55 AM,42.8,39.2,87,30.04,10.0,NW,12.7,-,N/A,,Overcast,320,2013-11-02 08:55:00
4:15 AM,42.8,39.2,87,30.05,10.0,NW,13.8,-,N/A,,Overcast,320,2013-11-02 09:15:00
4:35 AM,42.8,37.4,81,30.06,10.0,NW,12.7,-,N/A,,Overcast,320,2013-11-02 09:35:00
4:55 AM,42.8,37.4,81,30.07,10.0,NW,12.7,-,N/A,,Overcast,310,2013-11-02 09:55:00
5:15 AM,42.8,37.4,81,30.07,10.0,NW,16.1,-,N/A,,Overcast,320,2013-11-02 10:15:00
5:35 AM,42.8,37.4,81,30.08,10.0,NW,12.7,-,N/A,,Overcast,310,2013-11-02 10:35:00
5:55 AM,41.0,37.4,87,30.09,-9999.0,WNW,12.7,-,N/A,,Mostly Cloudy,300,2013-11-02 10:55:00
6:15 AM,39.2,35.6,87,30.11,10.0,NW,12.7,-,N/A,,Partly Cloudy,310,2013-11-02 11:15:00
6:35 AM,37.4,35.6,93,30.12,10.0,NW,10.4,-,N/A,,Clear,310,2013-11-02 11:35:00
6:55 AM,37.4,35.6,93,30.12,10.0,NW,11.5,-,N/A,,Partly Cloudy,310,2013-11-02 11:55:00
7:15 AM,37.4,35.6,93,30.13,10.0,NW,11.5,-,N/A,,Partly Cloudy,320,2013-11-02 12:15:00
7:35 AM,37.4,33.8,87,30.13,10.0,NW,12.7,-,N/A,,Clear,310,2013-11-02 12:35:00
7:55 AM,35.6,33.8,93,30.14,9.0,WNW,11.5,-,N/A,,Clear,300,2013-11-02 12:55:00
8:15 AM,35.6,33.8,93,30.14,9.0,WNW,9.2,-,N/A,,Clear,300,2013-11-02 13:15:00
8:35 AM,35.6,33.8,93,30.15,9.0,NW,9.2,-,N/A,,Clear,310,2013-11-02 13:35:00
8:55 AM,37.4,35.6,93,30.16,10.0,NW,10.4,-,N/A,,Clear,310,2013-11-02 13:55:00
9:15 AM,37.4,35.6,93,30.16,10.0,NW,13.8,-,N/A,,Clear,320,2013-11-02 14:15:00
9:35 AM,39.2,35.6,87,30.17,10.0,NW,11.5,-,N/A,,Clear,310,2013-11-02 14:35:00
9:55 AM,41.0,35.6,81,30.18,10.0,NW,10.4,-,N/A,,Clear,310,2013-11-02 14:55:00
10:15 AM,41.0,35.6,81,30.18,10.0,NW,11.5,-,N/A,,Clear,310,2013-11-02 15:15:00
10:35 AM,42.8,37.4,81,30.19,10.0,NW,11.5,-,N/A,,Clear,320,2013-11-02 15:35:00
10:55 AM,42.8,37.4,81,30.19,10.0,WNW,12.7,-,N/A,,Clear,300,2013-11-02 15:55:00
12:15 PM,48.2,35.6,62,30.20,10.0,NW,11.5,18.4,N/A,,Clear,320,2013-11-02 17:15:00
12:35 PM,50.0,35.6,58,30.20,10.0,NW,9.2,17.3,N/A,,Clear,310,2013-11-02 17:35:00
12:55 PM,50.0,35.6,58,30.19,10.0,WNW,11.5,17.3,N/A,,Clear,290,2013-11-02 17:55:00
1:15 PM,50.0,35.6,58,30.19,10.0,WNW,11.5,18.4,N/A,,Clear,300,2013-11-02 18:15:00
1:35 PM,51.8,33.8,50,30.18,10.0,WNW,10.4,17.3,N/A,,Clear,300,2013-11-02 18:35:00
1:55 PM,51.8,35.6,54,30.18,10.0,NW,10.4,16.1,N/A,,Clear,320,2013-11-02 18:55:00
2:15 PM,51.8,33.8,50,30.17,10.0,WNW,11.5,-,N/A,,Clear,300,2013-11-02 19:15:00
2:35 PM,53.6,35.6,51,30.17,10.0,WNW,11.5,-,N/A,,Clear,290,2013-11-02 19:35:00
2:55 PM,53.6,33.8,47,30.16,10.0,NW,6.9,15.0,N/A,,Clear,310,2013-11-02 19:55:00
3:15 PM,53.6,33.8,47,30.16,10.0,WNW,10.4,-,N/A,,Partly Cloudy,290,2013-11-02 20:15:00
3:35 PM,53.6,33.8,47,30.16,10.0,WNW,11.5,-,N/A,,Clear,300,2013-11-02 20:35:00
3:55 PM,53.6,33.8,47,30.15,10.0,WNW,11.5,18.4,N/A,,Clear,290,2013-11-02 20:55:00
4:15 PM,53.6,33.8,47,30.15,10.0,WNW,9.2,-,N/A,,Clear,290,2013-11-02 21:15:00
4:35 PM,53.6,33.8,47,30.15,10.0,WSW,6.9,-,N/A,,Clear,250,2013-11-02 21:35:00
4:55 PM,53.6,33.8,47,30.15,10.0,West,5.8,-,N/A,,Clear,280,2013-11-02 21:55:00
5:15 PM,53.6,33.8,47,30.15,10.0,WSW,5.8,-,N/A,,Clear,240,2013-11-02 22:15:00
5:35 PM,53.6,33.8,47,30.14,10.0,West,4.6,-,N/A,,Clear,260,2013-11-02 22:35:00
5:55 PM,51.8,33.8,50,30.14,10.0,SW,3.5,-,N/A,,Clear,220,2013-11-02 22:55:00
6:15 PM,50.0,33.8,54,30.14,10.0,South,4.6,-,N/A,,Clear,180,2013-11-02 23:15:00
6:35 PM,46.4,33.8,62,30.13,10.0,SSE,3.5,-,N/A,,Clear,160,2013-11-02 23:35:00
6:55 PM,42.8,32.0,66,30.14,10.0,SSW,3.5,-,N/A,,Clear,200,2013-11-02 23:55:00
7:15 PM,42.8,32.0,66,30.14,10.0,SSW,4.6,-,N/A,,Clear,200,2013-11-03 00:15:00
7:35 PM,44.6,33.8,66,30.14,10.0,South,4.6,-,N/A,,Clear,180,2013-11-03 00:35:00
7:55 PM,41.0,32.0,70,30.14,10.0,South,4.6,-,N/A,,Clear,190,2013-11-03 00:55:00
8:15 PM,41.0,33.8,76,30.14,10.0,South,4.6,-,N/A,,Clear,190,2013-11-03 01:15:00
8:35 PM,39.2,33.8,81,30.14,10.0,SSW,4.6,-,N/A,,Clear,200,2013-11-03 01:35:00
8:55 PM,39.2,32.0,75,30.13,10.0,South,3.5,-,N/A,,Clear,190,2013-11-03 01:55:00
9:15 PM,37.4,32.0,81,30.13,10.0,South,3.5,-,N/A,,Clear,190,2013-11-03 02:15:00
9:35 PM,37.4,32.0,81,30.13,10.0,South,3.5,-,N/A,,Clear,190,2013-11-03 02:35:00
9:55 PM,37.4,32.0,81,30.13,10.0,Calm,Calm,-,N/A,,Clear,0,2013-11-03 02:55:00
10:15 PM,37.4,32.0,81,30.13,10.0,Calm,Calm,-,N/A,,Clear,0,2013-11-03 03:15:00
10:35 PM,35.6,32.0,87,30.13,10.0,Calm,Calm,-,N/A,,Clear,0,2013-11-03 03:35:00
10:55 PM,35.6,32.0,87,30.13,10.0,Calm,Calm,-,N/A,,Clear,0,2013-11-03 03:55:00
11:15 PM,35.6,32.0,87,30.13,10.0,Calm,Calm,-,N/A,,Clear,0,2013-11-03 04:15:00
11:35 PM,33.8,32.0,93,30.13,10.0,South,3.5,-,N/A,,Clear,190,2013-11-03 04:35:00
11:55 PM,33.8,32.0,93,30.13,10.0,Calm,Calm,-,N/A,,Clear,0,2013-11-03 04:55:00